Location: Unspecified
(54.1780°N, 0.0000°E)
Time: 08:39:14
(UTC+00:00)

Explorer 7 - Visible Passes

Search period start: 21 June 2021 00:00
Search period end: 01 July 2021 00:00
Orbit: 484 x 677 km, 50.3° (Epoch: 20 June)

Date Brightness Start Highest point End Pass type
(mag) Time Alt. Az. Time Alt. Az. Time Alt. Az.
21 Jun 7.9 01:40:27 10° W 01:44:32 30° SSW 01:48:26 10° SSE visible
21 Jun 7.3 22:23:46 10° WSW 22:28:30 52° S 22:33:05 10° E visible
22 Jun 7.3 00:04:07 10° W 00:08:45 48° SSW 00:13:10 10° ESE visible
22 Jun 8.2 01:44:56 10° W 01:48:40 23° SSW 01:52:14 10° SSE visible
22 Jun 7.3 22:28:00 10° WSW 22:32:46 54° S 22:37:22 10° E visible
23 Jun 7.5 00:08:26 10° W 00:12:58 42° SSW 00:17:19 10° SE visible
23 Jun 8.5 01:49:34 10° W 01:52:43 18° SW 01:55:46 10° S visible
23 Jun 7.3 22:32:16 10° W 22:37:02 55° S 22:41:38 10° ESE visible
24 Jun 7.7 00:12:47 10° W 00:17:10 35° SSW 00:21:23 10° SE visible
24 Jun 8.8 01:54:33 10° WSW 01:56:44 13° SW 01:58:32 11° SSW visible
24 Jun 7.4 22:36:33 10° W 22:41:17 52° S 22:45:53 10° ESE visible
25 Jun 8.0 00:17:12 10° W 00:21:19 29° SSW 00:24:25 15° SSE visible
25 Jun 7.5 22:40:51 10° W 22:45:32 47° SSW 22:50:04 10° ESE visible
26 Jun 8.3 00:21:41 10° W 00:25:26 23° SW 00:27:12 18° S visible
26 Jun 7.7 22:45:11 10° W 22:49:45 41° SSW 22:54:06 10° SE visible
27 Jun 8.6 00:26:22 10° W 00:29:28 17° SW 00:30:19 17° SSW visible
27 Jun 7.9 22:49:32 10° W 22:53:56 34° SSW 22:57:25 14° SE visible
28 Jun 9.0 00:31:28 10° WSW 00:33:29 13° SW 00:33:38 13° SW visible
28 Jun 8.2 22:53:57 10° W 22:58:05 28° SSW 23:00:52 16° SSE visible
29 Jun 8.6 22:58:28 10° W 23:02:11 22° SW 23:04:24 16° S visible
30 Jun 8.9 23:03:11 10° WSW 23:06:13 17° SW 23:08:02 14° SSW visible
